Weather Service Report


218 
ASUS45 KPSR 202310
RWRAZ 

ARIZONA HOURLY REGIONAL WEATHER ROUNDUP
NATIONAL WEATHER SERVICE PHOENIX AZ
400 PM MST FRI JUL 20 2018

NOTE: FAIR INDICATES FEW OR NO CLOUDS BELOW 12,000 FEET WITH NO
SIGNIFICANT WEATHER AND/OR OBSTRUCTIONS TO VISIBILITY.

AZZ001>003-036-210000-
NORTHWEST ARIZONA
  
CITY           SKY/WX    TMP DP  RH WIND       PRES   REMARKS
BULLHEAD CITY  PTSUNNY  109  55  17 S7        29.74F HX 108           
KINGMAN        MOSUNNY   97  56  25 S6        29.99F                  
$$

AZZ004>008-015-016-018-210000-
NORTH CENTRAL ARIZONA
  
CITY           SKY/WX    TMP DP  RH WIND       PRES   REMARKS
GRAND CANYON   PTSUNNY   77  52  41 SW6       30.28R THUNDER          
WILLIAMS       CLOUDY    79  54  41 SW10G17   30.27S                  
PRESCOTT       LGT RAIN  75  63  66 SW13      30.17S                  
FLAGSTAFF      PTSUNNY   83  49  30 SW8G21    30.28F                  
PAYSON         PTSUNNY   88  52  29 SW10G16   30.13S                  
PAGE           SUNNY    100  45  15 W12G22    30.01F                  
$$

AZZ009>014-017-210000-
NORTHEAST ARIZONA
  
CITY           SKY/WX    TMP DP  RH WIND       PRES   REMARKS
WINSLOW        PTSUNNY   96  48  19 W15       30.08F                  
SAINT JOHNS    CLOUDY    89  49  25 SW12G18   30.16S                  
WINDOW ROCK    MOSUNNY   90  48  23 N13       30.22F                  
SHOW LOW       PTSUNNY   73  50  43 E21       30.24F                  
$$

AZZ540-542>544-546-548-210000-
GREATER PHOENIX AREA
  
CITY           SKY/WX    TMP DP  RH WIND       PRES   REMARKS
PHOENIX        PTSUNNY  106  59  21 W9        29.77F HX 106           
BUCKEYE        SUNNY    104  61  24 SW8       29.78F HX 105           
LUKE AFB       SUNNY    108  60  21 SW17      29.76F HX 109           
DEER VALLEY    MOSUNNY  106  61  23 SW10G23   29.79F HX 107           
SCOTTSDALE     MOSUNNY  106  59  21 W8        29.81F HX 106           
MESA-FALCON    PTSUNNY  106  63  24 W8G15     29.81F HX 108           
MESA-GATEWAY   MOSUNNY  106  61  23 W12       29.81F HX 107           
CHANDLER       SUNNY    106  59  21 SW17      29.79F HX 106           
$$

AZZ539-553-210000-
SOUTHWEST MARICOPA COUNTY AND PINAL COUNTY
  
CITY           SKY/WX    TMP DP  RH WIND       PRES   REMARKS
CASA GRANDE    CLOUDY   103  63  27 W9        29.81F HX 105           
GILA BEND      FAIR     105  59  21 W10       29.76F HX 105           
$$

AZZ503-504-507>509-210000-
SOUTHEAST ARIZONA
  
CITY           SKY/WX    TMP DP  RH WIND       PRES   REMARKS
TUCSON         CLOUDY    96  63  33 W13       29.93F                  
DAVIS-MONTHAN  CLOUDY    96  63  33 N10       29.92R                  
RYAN FIELD     SUNNY     97  64  34 SW7       29.92F                  
NOGALES        TSTM      76  69  79 S15G25    30.07R                  
SIERRA VISTA   PTSUNNY   87  62  42 NW17G24   30.09R                  
DOUGLAS        SUNNY     98  48  18 E3        29.98F                  
SAFFORD        MOSUNNY  105  50  15 NW7G18    29.88F HX 102           
$$

AZZ532-210000-
SOUTHWEST ARIZONA
  
CITY           SKY/WX    TMP DP  RH WIND       PRES   REMARKS
YUMA           MOSUNNY  107  57  19 S10       29.75F HX 107           
$$

CAZ041-043-047-048-061-525>527-560>570-210000-
SOUTHERN CALIFORNIA
  
CITY           SKY/WX    TMP DP  RH WIND       PRES   REMARKS
DOWNTOWN L.A.  SUNNY     81  57  43 VRB3      29.92F                  
L.A. AIRPORT   MOSUNNY   74  63  68 W13       29.94F                  
SAN DIEGO      MOSUNNY   77  64  64 W8        29.96F                  
BURBANK        SUNNY     85  57  38 SE14      29.92F                  
ONTARIO        MOSUNNY   88  63  43 W16G22    29.91F                  
RIVERSIDE      SUNNY     88  59  37 W20G25    29.91F                  
PALM SPRINGS   SUNNY    108  58  19 SE10G18   29.77F HX 108           
EL CENTRO NAS  MOSUNNY  106  60  22 E7        29.73F HX 107           
IMPERIAL       MOSUNNY  106  63  24 E6        29.71F HX 109           
BLYTHE         MOSUNNY  108  64  24 S17G23    29.75F HX 112           
NEEDLES        SUNNY    112  57  16 S12G17    29.76F HX 112           
$$

NVZ020-UTZ003-210000-
SOUTHERN NEVADA-UTAH
  
CITY           SKY/WX    TMP DP  RH WIND       PRES   REMARKS
LAS VEGAS      PTSUNNY   99  60  27 SE5       29.87F THUNDER          
SALT LAKE CITY CLOUDY    89  47  23 CALM      30.01F                  
$$

NMZ009-TXZ055-210000-
NEW MEXICO-WEST TEXAS
  
CITY           SKY/WX    TMP DP  RH WIND       PRES   REMARKS
ALBUQUERQUE    MOSUNNY   97  38  13 SE5       30.08F                  
EL PASO        MOSUNNY  101  33   9 E8        29.96F                  
$$


........................KEY........................
SKY/WX - SKY CONDITION/WEATHER
TMP    - TEMPERATURE IN FAHRENHEIT
DP     - DEW POINT IN FAHRENHEIT
RH     - RELATIVE HUMIDITY IN PERCENT
WIND   - DIRECTION AND SPEED IN MILES PER HOUR (MPH)
VRB    - VARIABLE WIND DIRECTION
PRES   - MEAN SEA LEVEL PRESSURE IN INCHES OF MERCURY
         F - FALLING PRESSURE   R - RISING PRESSURE
         S - STEADY PRESSURE
VSB    - VISIBILITY IN MILES
HX     - HEAT INDEX IN FAHRENHEIT
WCI    - WIND CHILL INDEX IN FAHRENHEIT
TC     - TEMPERATURE IN CELSIUS WHICH IS ALSO KNOWN AS
         TEMPERATURE IN CENTIGRADE
AFB    - AIR FORCE BASE
         LUKE AFB IS LUKE AIR FORCE BASE
         DAVIS-MONTHAN IS DAVIS-MONTHAN AIR FORCE BASE
NAS    - NAVAL AIR STATION
         EL CENTRO NAS IS EL CENTRO NAVAL AIR STATION
N/A    - NOT AVAILABLE

  

Return to Home page


Western Regional Climate Center, wrcc@dri.edu